Hourly Data Report for October 24, 2015

All times are specified in Local Standard Time (LST). Add 1 hour to adjust for Daylight Saving Time where and when it is observed.

PENTICTON A
BRITISH COLUMBIA

49°27'45.000" N
119°36'08.000" W
344.40 m
1126146
71889
YYF

Download Data

Hourly Data (October 2015)
Hourly Data Report for October 24, 2015
Temp Definition
°C
Dew Point Temp Definition
°C
Rel Hum Definition
%
Wind Dir Definition
10's deg

Wind Spd Definition
km/h
Visibility Definition
km
Stn Press Definition
kPa
Hmdx Definition


Wind Chill Definition


Weather Definition


TIME
00:00 Legend Double Dagger 0.4 -1.7 86 36 3 24.1 97.94     LegendNANA
01:00 Legend Double Dagger 0.3 -2.1 84 1 7 24.1 97.96     Clear
02:00 Legend Double Dagger 1.0 -1.4 84 36 11 24.1 97.99     LegendNANA
03:00 Legend Double Dagger 1.0 -1.6 83 35 10 24.1 97.97     LegendNANA
04:00 Legend Double Dagger 0.9 -1.7 83 1 11 24.1 97.95     Clear
05:00 Legend Double Dagger 0.9 -1.7 83 1 13 24.1 98.00     LegendNANA
06:00 Legend Double Dagger 0.1 -1.8 87 36 11 24.1 97.99     LegendNANA
07:00 Legend Double Dagger 0.9 -1.5 84 1 13 24.1 98.03     Mostly Cloudy
08:00 Legend Double Dagger 4.0 0.3 77 1 9 24.1 98.06     LegendNANA
09:00 Legend Double Dagger 7.5 3.0 73 2 13 24.1 98.06     LegendNANA
10:00 Legend Double Dagger 7.6 3.1 73 36 11 24.1 98.03     Mostly Cloudy
11:00 Legend Double Dagger 8.5 3.8 72 36 10 24.1 97.97     LegendNANA
12:00 Legend Double Dagger 9.4 3.4 66 35 13 24.1 97.88     LegendNANA
13:00 Legend Double Dagger 9.6 3.4 65 36 10 24.1 97.82     Mostly Cloudy
14:00 Legend Double Dagger 10.0 4.0 66 35 12 24.1 97.77     LegendNANA
15:00 Legend Double Dagger 9.7 3.7 66 36 8 24.1 97.77     LegendNANA
16:00 Legend Double Dagger 9.0 3.9 70 2 6 24.1 97.77     Cloudy
17:00 Legend Double Dagger 7.7 3.6 75 34 6 24.1 97.76     LegendNANA
18:00 Legend Double Dagger 5.8 3.3 84 2 8 24.1 97.76     LegendNANA
19:00 Legend Double Dagger 5.2 2.7 84 2 4 24.1 97.76     Mostly Cloudy
20:00 Legend Double Dagger 5.4 2.9 84 1 10 24.1 97.75     LegendNANA
21:00 Legend Double Dagger 4.3 2.5 88 33 6 24.1 97.80     LegendNANA
22:00 Legend Double Dagger 4.2 1.6 83 34 5 24.1 97.82     Mostly Cloudy
23:00 Legend Double Dagger 2.3 1.1 92 5 3 24.1 97.83     LegendNANA

Notes on Data Quality.

Legend

  • E = Estimated
  • M = Missing
  • NA = Not Available
  • ‡ = Partner data that is not subject to review by the National Climate Archives
Date modified: